Regional Weather Roundup
Issued by NWS

Home | Current Version | Previous Version | Text Only | Print | Product List | Glossary Off
Versions: 1 2 3 4 5 6 7 8 9 10 11 12 13 14 15 16 17 18 19 20 21 22 23 24 25 26 27 28 29 30 31 32 33 34 35 36 37 38 39 40 41 42 43 44 45 46 47 48 49 50

793
ASUS45 KBOU 222007
RWRCO

WEATHER ROUNDUP FOR COLORADO
NATIONAL WEATHER SERVICE DENVER/BOULDER CO
200 PM MDT MON MAY 22 2017

NOTE: "FAIR" INDICATES FEW OR NO CLOUDS BELOW 12000 FEET WITH NO
SIGNIFICANT WEATHER AND/OR OBSTRUCTIONS TO VISIBILITY.

COZ001>005-013-030-031-222100-
...NORTHWEST COLORADO...

CITY           SKY/WX    TMP DP  RH WIND       PRES   REMARKS
CRAIG          PTSUNNY   58  33  39 W10       30.20F
HAYDEN         CLOUDY    52  32  46 W5        30.22S
MEEKER         PTSUNNY   60  32  34 N3        30.22F
RABBIT EARS PA FLURRIES  34  32  93 W8        30.32F WCI  27
STEAMBOAT SPGS CLOUDY    51  37  60 NE5       30.21F
WALDEN           N/A     46  30  53 N16       30.23S
$$

COZ006>008-011-222100-
...WEST CENTRAL VALLEYS...

CITY           SKY/WX    TMP DP  RH WIND       PRES   REMARKS
GRAND JUNCTION FAIR      70  31  23 VRB5      30.16F
MONTROSE       FAIR      65  27  23 VRB6      30.21F
EAGLE          PTSUNNY   59  30  33 CALM      30.21F
RIFLE          FAIR      69  23  17 NW16      30.16F
DELTA          FAIR      74  25  16 SW12G21   30.15F
NUCLA          FAIR      68  28  22 W5        30.23F
$$

COZ017>023-064>068-222100-
...SOUTHWEST COLORADO...

CITY           SKY/WX    TMP DP  RH WIND       PRES   REMARKS
DURANGO        FAIR      68  31  25 W16G24    30.14F
CORTEZ         FAIR      70  28  21 NW15G22   30.17F
PAGOSA SPRINGS FAIR      64  21  19 S10G16    30.18F
TELLURIDE      FAIR      54  26  33 N5        30.32F
WOLF CREEK PAS PTSUNNY   39  18  41 W3        30.42S
$$

COZ009-010-012-014-032>034-037-058>063-222100-
...CENTRAL COLORADO...

CITY           SKY/WX    TMP DP  RH WIND       PRES   REMARKS
ASPEN          CLOUDY    54  29  38 N10       30.22F
BUENA VISTA    CLOUDY    56  21  26 W13G22    30.20F
COPPER MTN     CLOUDY    37  25  60 NW15G24   30.36S
BERTHOUD PASS  SNOW      25  14  63 NW32G40   30.32F VSB 1/2 WCI   7
COTTONWOOD PAS FAIR      50  19  29 SW15G22   30.29S
GUNNISON       PTSUNNY   56  23  27 N10       30.22F
KREMMLING      CLOUDY    55  30  38 N14G21    30.23F
LEADVILLE      CLOUDY    43  22  43 NW14      30.29S
MONARCH PASS   PTSUNNY   36  23  60 NW15G22   30.47F
SALIDA         PTSUNNY   60  23  23 CALM      30.25S
SUNLIGHT       PTSUNNY   37  21  52 W6G20     30.40S
WILKERSON PASS CLOUDY    37  27  65 W3        30.35S
$$

COZ069>075-222100-
...SAN LUIS VALLEY/SANGRE DE CRISTO MOUNTAINS...

CITY           SKY/WX    TMP DP  RH WIND       PRES   REMARKS
ALAMOSA        FAIR      63  27  25 VRB3      30.15F
DEL NORTE      PTSUNNY   60  26  28 SE5       30.17F
LA VETA PASS   RAIN      39  34  81 N8        30.40S
SAGUACHE       FAIR      63  23  22 NW16G24   30.18F
$$

COZ035-036-038>040-222100-
...NORTHERN COLORADO FRONT RANGE...

CITY           SKY/WX    TMP DP  RH WIND       PRES   REMARKS
DENVER INTL AP PTSUNNY   65  33  30 NW7       30.09F
DMNS CITY PARK   N/A     64  28  25 NE7G20    30.07F
AURORA         PTSUNNY   62  29  28 N6G17     30.11F
FRONT RANGE AP PTSUNNY   66  32  28 SW3       30.10F
ERIE MUNI ARPT FAIR      66  28  23 SW6       30.07F
BOULDER MUN AP PTSUNNY   64  30  27 W6        30.07F
CENTENNIAL     PTSUNNY   63  29  27 W10       30.11F
BROOMFIELD     PTSUNNY   64  30  27 S8        30.09F
FORT COLLINS   FAIR      68  33  27 NW8       30.06F
LONGMONT       FAIR      69  29  22 S5G16     30.07F
$$

COZ041-046-047-076>085-087-088-222100-
...PIKES PEAK/PALMER DIVIDE AND SOUTHERN FOOTHILLS...

CITY           SKY/WX    TMP DP  RH WIND       PRES   REMARKS
COLO. SPRINGS  FAIR      65  26  23 N13G20    30.13F
A. F. ACADEMY  FAIR      60  26  27 NW7       30.13F
SCHRIEVER AFB  FAIR      60  25  26 N7G18     30.14F
CHEYENNE MTN   FAIR      57  24  28 NE7       30.10F
ELLICOTT       FAIR     N/A N/A N/A NW10G21   30.12F
FALCON         FAIR      60  24  25 NE10G16   30.17F
FORT CARSON    FAIR      64  28  25 NW9       30.11F
LIMON          FAIR      64  34  32 NW12G18   30.09F
MONUMENT HILL  FAIR      54  28  37 NE6G16    30.18F
CANON CITY     NOT AVBL
WALSENBURG     NOT AVBL
TRINIDAD       FAIR      62  38  40 N6        30.15F
$$

COZ042>045-048>051-090-091-222100-
...NORTHEAST COLORADO...

CITY           SKY/WX    TMP DP  RH WIND       PRES   REMARKS
GREELEY ARPT   FAIR      67  33  28 W12       30.05F
AKRON          LGT RAIN  58  39  49 NE5       30.06F
BURLINGTON     FAIR      69  39  33 NW12      30.04F
WRAY           FAIR      70  37  30 NW10G21   30.01F
YUMA           CLOUDY    63  23  22 N15G22    30.04S
STERLING       FAIR      64  41  42 N15       30.02F
HOLYOKE        NOT AVBL
FORT MORGAN    PTSUNNY   67  33  28 NW10G16   30.05F
$$

COZ086-089-092>099-222100-
...SOUTHEAST COLORADO...

CITY           SKY/WX    TMP DP  RH WIND       PRES   REMARKS
PUEBLO         FAIR      66  41  40 S7        30.09F
LA JUNTA       FAIR      66  45  46 W7        30.08F
LAMAR          FAIR      66  47  50 SW7       30.05F
SPRINGFIELD      N/A     62  45  53 NW14G23   30.09F
$$




USA.gov is the U.S. government's official web portal to all federal, state and local government web resources and services.